Location: Marysville Observatory
(48.1092°N, 122.1645°W)
Time: 14:04:34
(UTC-07:00)

Amateur Radio Satellites - All Passes

Search period start: 04 September 2015 13:34
Search period end: 05 September 2015 13:34
Location: Marysville Observatory, 48.1092°N, 122.1645°W

Satellite Date Start Highest point End Downlink Frequencies (MHz)
Time Altitude Azimuth
JAS-2 04 Sep 13:38:21 13:44:41 29° 57° (ENE) 13:51:06 435.910
AISAT 04 Sep 13:41:42 13:45:15 23° 297° (WNW) 13:48:42 437.250
ESTCUBE 1 04 Sep 13:43:38 13:47:28 27° 295° (WNW) 13:51:14 437.505/2401.250
ITAMSAT 1 04 Sep 13:53:30 13:58:10 36° 66° (ENE) 14:02:55 435.822/435.867
SWISSCUBE 04 Sep 13:54:53 13:57:53 17° 89° (E) 14:01:01 437.505
TISAT 1 04 Sep 13:55:14 13:59:32 77° 103° (ESE) 14:03:49 437.305
Gurwin Techsat 1B 04 Sep 13:59:21 14:04:26 48° 69° (ENE) 14:09:33 435.225
AO-7 04 Sep 14:04:51 14:11:16 26° 48° (NE) 14:17:51 29.400- 29.500
VELOX 1 04 Sep 14:09:34 14:11:59 14° 301° (WNW) 14:14:15 145.980
BEESAT 3 04 Sep 14:24:14 14:28:00 38° 120° (ESE) 14:31:50 437.485
Oscar 19 04 Sep 14:24:40 14:29:30 38° 263° (W) 14:34:21 437.125/150
Cosmos 2499 04 Sep 14:28:32 14:36:31 39° 66° (ENE) 14:44:05 435.465 / 435.565
GONETS M04 04 Sep 14:34:04 14:42:51 72° 266° (W) 14:51:37
ITUPSAT 1 04 Sep 14:34:36 14:38:57 34° 96° (E) 14:43:19 437.325
ISS 04 Sep 14:34:42 14:37:23 23° 218° (SW) 14:40:01 145.825
BEESAT 2 04 Sep 14:42:31 14:46:24 44° 121° (ESE) 14:50:21 435.950
SPROUT 04 Sep 14:44:25 14:47:52 23° 296° (WNW) 14:51:13 437.525
BEESAT 04 Sep 15:04:51 15:09:37 67° 103° (ESE) 15:14:21 436.000
KKS-1 04 Sep 15:09:12 15:11:33 14° 87° (E) 15:14:06 437.445
RS-15 04 Sep 15:09:23 15:18:38 35° 107° (ESE) 15:28:28 29.354- 29.394
JAS-2 04 Sep 15:21:12 15:29:04 81° 256° (WSW) 15:36:54 435.910
HORYU 2 04 Sep 15:21:59 15:25:55 31° 66° (ENE) 15:29:55 437.375
SWISSCUBE 04 Sep 15:31:31 15:36:15 66° 288° (WNW) 15:40:58 437.505
TISAT 1 04 Sep 15:32:27 15:34:46 14° 300° (WNW) 15:36:57 437.305
ITAMSAT 1 04 Sep 15:32:59 15:37:43 35° 264° (W) 15:42:25 435.822/435.867
Gurwin Techsat 1B 04 Sep 15:40:10 15:44:41 27° 268° (W) 15:49:08 435.225
AIST 2 04 Sep 15:47:45 15:51:45 43° 121° (ESE) 15:55:49 435.215
AO-7 04 Sep 15:54:47 16:03:09 87° 72° (ENE) 16:11:33 29.400- 29.500
BEESAT 3 04 Sep 16:02:19 16:05:59 31° 319° (NW) 16:09:40 437.485
ITUPSAT 1 04 Sep 16:12:34 16:16:50 32° 294° (WNW) 16:21:01 437.325
STARS 04 Sep 16:14:55 16:19:04 37° 97° (E) 16:23:12 437.465
BEESAT 2 04 Sep 16:20:58 16:24:35 29° 321° (NW) 16:28:12 435.950
Cosmos 2499 04 Sep 16:21:42 16:30:06 56° 269° (W) 16:37:52 435.465 / 435.565
GONETS M04 04 Sep 16:33:08 16:38:15 16° 286° (WNW) 16:42:53
BEESAT 04 Sep 16:43:42 16:47:01 19° 300° (WNW) 16:50:11 436.000
KKS-1 04 Sep 16:44:15 16:48:45 71° 287° (WNW) 16:53:13 437.445
CUTE-I 04 Sep 16:50:31 16:53:30 16° 56° (NE) 16:56:40 437.470
HORYU 2 04 Sep 16:58:26 17:02:31 33° 264° (W) 17:06:35 437.375
JAS-2 04 Sep 17:09:49 17:15:19 19° 277° (W) 17:20:27 435.910
SWISSCUBE 04 Sep 17:12:06 17:13:17 11° 306° (NW) 17:14:14 437.505
RS-15 04 Sep 17:19:04 17:30:07 79° 312° (NW) 17:41:43 29.354- 29.394
AIST 2 04 Sep 17:26:40 17:30:27 30° 320° (NW) 17:34:14 435.215
MOZHAYETS 4 04 Sep 17:27:32 17:32:02 56° 100° (E) 17:36:31
Cubesat XI-IV 04 Sep 17:44:28 17:49:21 39° 66° (ENE) 17:54:19 437.490
BEESAT 3 04 Sep 17:44:38 17:45:09 10° 342° (NNW) 17:45:38 437.485
AO-7 04 Sep 17:50:38 17:57:07 23° 271° (W) 18:03:18 29.400- 29.500
STARS 04 Sep 17:51:35 17:55:23 27° 295° (WNW) 17:59:05 437.465
CUBESAT XI-V 04 Sep 17:58:04 17:59:54 12° 85° (E) 18:01:58 437.345
O/OREOS (USA 219) 04 Sep 17:58:28 18:01:48 21° 103° (ESE) 18:05:16 437.305
Cosmos 2499 04 Sep 18:18:38 18:21:20 11° 291° (WNW) 18:23:26 435.465 / 435.565
KKS-1 04 Sep 18:23:34 18:24:37 11° 305° (NW) 18:25:29 437.445
HO-68 04 Sep 18:25:36 18:29:32 16° 46° (NE) 18:33:44 435.675
CUTE-I 04 Sep 18:27:34 18:32:53 86° 74° (ENE) 18:38:15 437.470
AIST 1 04 Sep 18:42:59 18:47:10 45° 75° (ENE) 18:51:23
Cosmos 2491 04 Sep 18:48:33 18:56:02 31° 62° (ENE) 19:03:41 435.465 / 435.565
YUBILEINY 04 Sep 19:05:33 19:08:02 12° 70° (ENE) 19:11:10 435.215
MOZHAYETS 4 04 Sep 19:05:34 19:08:54 20° 298° (WNW) 19:12:09
AIST 2 04 Sep 19:09:24 19:10:21 11° 343° (NNW) 19:11:12 435.215
DOVE 4 04 Sep 19:16:15 19:19:43 20° 60° (ENE) 19:23:26 437.250
BRITE-PL 04 Sep 19:16:42 19:21:03 44° 69° (ENE) 19:25:47 437.365/2234.400
GOMX 1 04 Sep 19:23:18 19:27:31 33° 66° (ENE) 19:32:04 467.674
Cubesat XI-IV 04 Sep 19:24:44 19:29:33 33° 265° (W) 19:34:20 437.490
CINEMA 3 04 Sep 19:30:45 19:33:05 14° 57° (ENE) 19:35:38 145.822/145.860
STRAND 1 04 Sep 19:31:39 19:35:56 27° 93° (E) 19:40:18 437.568
CUBESAT XI-V 04 Sep 19:33:23 19:38:04 85° 282° (WNW) 19:42:44 437.345
RS-15 04 Sep 19:34:15 19:44:35 39° 342° (NNW) 19:55:20 29.354- 29.394
O/OREOS (USA 219) 04 Sep 19:36:28 19:40:54 51° 301° (WNW) 19:45:25 437.305
PRISM 04 Sep 19:41:37 19:44:42 21° 92° (E) 19:47:52 437.425
CUTE 1.7 + AOD 2 04 Sep 19:51:51 19:55:19 25° 66° (ENE) 19:58:51 437.475
CANX-2 04 Sep 20:06:02 20:09:58 37° 69° (ENE) 20:13:56 2200.000
HO-68 04 Sep 20:08:59 20:16:00 61° 67° (ENE) 20:23:05 435.675
CUTE-I 04 Sep 20:10:43 20:13:47 15° 274° (W) 20:16:36 437.470
SEEDS 04 Sep 20:19:27 20:23:20 36° 69° (ENE) 20:27:15 437.485
AIST 1 04 Sep 20:21:23 20:24:32 19° 273° (W) 20:27:34
UWE-3 04 Sep 20:25:02 20:27:43 16° 60° (ENE) 20:30:33 435.000/436.395/437.385
CUBEBUG 2 04 Sep 20:26:45 20:30:06 20° 62° (ENE) 20:33:37 437.445
COMPASS 1 04 Sep 20:33:45 20:37:40 40° 70° (ENE) 20:41:38 437.405
DELFI C3 04 Sep 20:34:46 20:36:12 12° 60° (ENE) 20:37:49 145.870
AAUSAT CUBESAT 2 04 Sep 20:39:57 20:43:51 40° 70° (ENE) 20:47:47 437.432
Cosmos 2491 04 Sep 20:45:04 20:53:48 71° 265° (W) 21:02:30 435.465 / 435.565
Oscar 11 04 Sep 20:49:57 20:53:32 26° 66° (ENE) 20:57:10 145.826/435.025
DOVE 4 04 Sep 20:52:13 20:56:58 65° 260° (W) 21:02:03 437.250
YUBILEINY 04 Sep 20:54:32 21:03:00 57° 91° (E) 21:11:37 435.215
BRITE-PL 04 Sep 20:56:07 20:59:52 24° 270° (W) 21:03:47 437.365/2234.400
GOMX 1 04 Sep 21:01:19 21:05:38 35° 267° (W) 21:10:13 467.674
BEESAT 3 04 Sep 21:02:00 21:04:35 16° 29° (NNE) 21:07:12 437.485
CINEMA 3 04 Sep 21:04:41 21:09:30 81° 77° (ENE) 21:14:32 145.822/145.860
STRAND 1 04 Sep 21:10:29 21:15:21 45° 292° (WNW) 21:20:12 437.568
CUBESAT XI-V 04 Sep 21:12:40 21:14:50 13° 302° (WNW) 21:16:50 437.345
PRISM 04 Sep 21:16:26 21:20:20 41° 291° (WNW) 21:24:13 437.425
O/OREOS (USA 219) 04 Sep 21:20:35 21:21:32 10° 324° (NW) 21:22:20 437.305
BEESAT 2 04 Sep 21:20:46 21:23:34 18° 31° (NNE) 21:26:25 435.950
CUTE 1.7 + AOD 2 04 Sep 21:27:04 21:31:04 37° 263° (W) 21:35:04 437.475
Cosmos 2504 04 Sep 21:38:33 21:43:02 16° 74° (ENE) 21:48:04 435.465 / 435.565
ZACube-1 04 Sep 21:41:59 21:46:28 56° 72° (ENE) 21:51:00 437.345
CANX-2 04 Sep 21:42:25 21:46:00 25° 267° (W) 21:49:31 2200.000
FUNcube-1 04 Sep 21:45:13 21:49:43 58° 72° (ENE) 21:54:16 145.935
HUMSAT D 04 Sep 21:50:05 21:53:47 29° 67° (ENE) 21:57:33 437.325/437.525
RS-15 04 Sep 21:50:19 22:00:46 38° 15° (NNE) 22:11:44 29.354- 29.394
SEEDS 04 Sep 21:55:43 21:59:14 24° 267° (W) 22:02:41 437.485
HO-68 04 Sep 21:57:54 22:04:13 31° 267° (W) 22:10:26 435.675
VELOX 1 04 Sep 21:58:09 22:00:43 16° 60° (ENE) 22:03:25 145.980
UWE-3 04 Sep 21:59:00 22:03:40 80° 257° (WSW) 22:08:24 435.000/436.395/437.385
CUBEBUG 2 04 Sep 22:01:42 22:06:22 61° 260° (W) 22:11:08 437.445
DELFI C3 04 Sep 22:06:39 22:10:42 83° 257° (WSW) 22:14:46 145.870
COMPASS 1 04 Sep 22:10:12 22:13:31 22° 268° (W) 22:16:45 437.405
50 SAT 04 Sep 22:13:55 22:16:54 21° 65° (ENE) 22:19:58 437.505
AAUSAT CUBESAT 2 04 Sep 22:16:19 22:19:37 22° 268° (W) 22:22:51 437.432
DX 1 04 Sep 22:25:09 22:29:11 39° 68° (ENE) 22:33:16 434.975-435.025
Oscar 11 04 Sep 22:25:31 22:29:35 37° 264° (W) 22:33:38 145.826/435.025
AIST 2 04 Sep 22:28:06 22:31:04 18° 31° (NNE) 22:34:05 435.215
UKube-1 04 Sep 22:30:27 22:34:28 40° 69° (ENE) 22:38:32 .
ANTELSAT 04 Sep 22:35:37 22:38:07 15° 87° (E) 22:40:46 437.575/2403.000
BEESAT 3 04 Sep 22:39:07 22:43:12 76° 51° (NE) 22:47:11 437.485
Cosmos 2491 04 Sep 22:44:12 22:49:12 16° 286° (WNW) 22:53:45 435.465 / 435.565
CINEMA 3 04 Sep 22:44:42 22:47:26 14° 275° (W) 22:49:59 145.822/145.860
YUBILEINY 04 Sep 22:52:09 23:00:18 39° 294° (WNW) 23:08:25 435.215
CUBEBUG 1 04 Sep 22:52:24 22:56:09 30° 67° (ENE) 23:00:00 437.445
BEESAT 2 04 Sep 22:58:07 23:02:13 87° 47° (NE) 23:06:15 435.950
AISAT 04 Sep 23:05:32 23:09:54 65° 73° (ENE) 23:14:21 437.250
M-CUBED/EXP-1 PRIME 04 Sep 23:05:55 23:07:14 12° 91° (E) 23:08:41 437.505
ESTCUBE 1 04 Sep 23:09:25 23:13:46 53° 71° (ENE) 23:18:10 437.505/2401.250
TISAT 1 04 Sep 23:17:58 23:19:32 12° 58° (ENE) 23:21:16 437.305
SO-50 04 Sep 23:19:41 23:20:43 11° 108° (ESE) 23:22:00 436.795
ZACube-1 04 Sep 23:19:53 23:23:12 19° 271° (W) 23:26:24 437.345
FUNcube-1 04 Sep 23:23:14 23:26:26 18° 271° (W) 23:29:32 145.935
DANDE 04 Sep 23:23:17 23:26:05 18° 80° (E) 23:29:35 436.750
UNISAT 6 04 Sep 23:25:14 23:29:36 44° 98° (E) 23:33:51 437.425
HUMSAT D 04 Sep 23:25:31 23:29:27 33° 265° (W) 23:33:22 437.325/437.525
Cosmos 2504 04 Sep 23:25:34 23:33:48 71° 94° (E) 23:42:25 435.465 / 435.565
BUGSAT 1 04 Sep 23:27:03 23:27:47 10° 85° (E) 23:28:46 437.445
VELOX 1 04 Sep 23:32:21 23:36:46 72° 257° (WSW) 23:41:13 145.980
DUCHIFAT 1 04 Sep 23:37:53 23:41:10 21° 92° (E) 23:44:31 145.980
UWE-3 04 Sep 23:40:14 23:41:04 10° 277° (W) 23:41:36 435.000/436.395/437.385
POLYITAN 1 04 Sep 23:40:51 23:44:21 24° 93° (E) 23:47:55 437.675
POPSAT HIP 1 04 Sep 23:41:33 23:45:03 24° 93° (E) 23:48:35 437.405
50 SAT 04 Sep 23:47:29 23:51:14 38° 263° (W) 23:54:56 437.505
TIGRISAT 04 Sep 23:51:46 23:56:21 77° 103° (ESE) 00:00:47 435.000
NANOSAT C BR1 04 Sep 23:56:45 00:00:39 33° 96° (E) 00:04:33 145.865
QB50P2 04 Sep 23:59:26 00:03:27 37° 97° (E) 00:07:28 145.880/145.840
CUSAT 1 05 Sep 00:01:31 00:06:01 65° 96° (E) 00:12:07 437.405
DX 1 05 Sep 00:01:59 00:05:34 24° 267° (W) 00:09:07 434.975-435.025
PCSat 05 Sep 00:02:27 00:03:23 11° 103° (ESE) 00:04:39 145.827
RS-15 05 Sep 00:03:53 00:15:37 71° 45° (NE) 00:27:51 29.354- 29.394
SPROUT 05 Sep 00:05:09 00:09:20 52° 72° (ENE) 00:13:35 437.525
AIST 2 05 Sep 00:06:02 00:10:16 88° 52° (NE) 00:14:24 435.215
UKube-1 05 Sep 00:07:14 00:10:45 23° 267° (W) 00:14:12 .
ANTELSAT 05 Sep 00:10:55 00:15:29 68° 287° (WNW) 00:19:53 437.575/2403.000
QB50P1 05 Sep 00:12:16 00:16:28 49° 99° (E) 00:20:38 145.935-145.965
BEESAT 3 05 Sep 00:18:30 00:20:36 14° 248° (WSW) 00:22:32 437.485
CUBEBUG 1 05 Sep 00:28:36 00:32:29 31° 265° (W) 00:36:23 437.445
AUBIESAT-1 05 Sep 00:28:42 00:32:37 82° 110° (ESE) 00:36:12 437.475
BEESAT 2 05 Sep 00:38:06 00:39:40 12° 249° (WSW) 00:41:02 435.950
M-CUBED/EXP-1 PRIME 05 Sep 00:38:43 00:42:40 65° 293° (WNW) 00:46:15 437.505
BEESAT 05 Sep 00:39:09 00:42:10 17° 59° (ENE) 00:45:20 436.000
AISAT 05 Sep 00:44:19 00:46:59 15° 272° (W) 00:49:30 437.250
ESTCUBE 1 05 Sep 00:47:46 00:51:00 19° 270° (W) 00:54:08 437.505/2401.250
TISAT 1 05 Sep 00:50:26 00:54:40 90° 83° (E) 00:58:57 437.305
SO-50 05 Sep 00:55:39 01:00:26 70° 125° (SE) 01:05:24 436.795
BUGSAT 1 05 Sep 00:59:39 01:03:57 88° 285° (WNW) 01:08:14 437.445
UNISAT 6 05 Sep 01:02:27 01:06:09 24° 296° (WNW) 01:09:41 437.425
DANDE 05 Sep 01:04:17 01:08:22 55° 288° (WNW) 01:13:56 436.750
SWISSCUBE 05 Sep 01:04:32 01:08:37 30° 65° (ENE) 01:12:46 437.505
DUCHIFAT 1 05 Sep 01:13:06 01:17:10 42° 290° (WNW) 01:21:12 145.980
POLYITAN 1 05 Sep 01:16:22 01:20:23 38° 291° (WNW) 01:24:21 437.675
POPSAT HIP 1 05 Sep 01:17:01 01:21:03 38° 291° (WNW) 01:25:00 437.405
Cosmos 2504 05 Sep 01:19:28 01:26:52 32° 298° (WNW) 01:34:18 435.465 / 435.565
TIGRISAT 05 Sep 01:29:50 01:32:32 15° 301° (WNW) 01:35:02 435.000
NANOSAT C BR1 05 Sep 01:32:42 01:36:24 28° 294° (WNW) 01:40:01 145.865
QB50P2 05 Sep 01:35:36 01:39:11 25° 295° (WNW) 01:42:41 145.880/145.840
PCSat 05 Sep 01:40:33 01:45:55 67° 119° (ESE) 01:51:20 145.827
SPROUT 05 Sep 01:42:45 01:45:46 18° 270° (W) 01:48:40 437.525
GONETS M04 05 Sep 01:44:31 01:51:30 29° 82° (E) 01:58:46
ITUPSAT 1 05 Sep 01:44:43 01:49:23 60° 72° (ENE) 01:54:07 437.325
CUSAT 1 05 Sep 01:45:35 01:49:29 21° 305° (NW) 01:54:05 437.405
AIST 2 05 Sep 01:46:30 01:48:13 12° 250° (WSW) 01:49:46 435.215
QB50P1 05 Sep 01:48:48 01:52:01 20° 297° (WNW) 01:55:08 145.935-145.965
ANTELSAT 05 Sep 01:50:45 01:51:25 10° 305° (NW) 01:51:52 437.575/2403.000
AUBIESAT-1 05 Sep 02:05:05 02:06:42 12° 309° (NW) 02:08:09 437.475
KKS-1 05 Sep 02:10:28 02:13:49 22° 63° (ENE) 02:17:16 437.445
Gurwin Techsat 1B 05 Sep 02:13:18 02:15:58 14° 85° (E) 02:18:54 435.225
BEESAT 05 Sep 02:14:46 02:19:32 73° 258° (WSW) 02:24:19 436.000
RS-15 05 Sep 02:16:47 02:27:41 44° 249° (WSW) 02:38:41 29.354- 29.394
O/OREOS (USA 219) 05 Sep 02:25:32 02:27:49 14° 41° (NE) 02:30:15 437.305
JAS-2 05 Sep 02:30:40 02:33:29 13° 78° (ENE) 02:36:32 435.910
TISAT 1 05 Sep 02:30:53 02:31:10 10° 275° (W) 02:31:12 437.305
Oscar 19 05 Sep 02:32:02 02:37:11 58° 101° (E) 02:42:18 437.125/150
BUGSAT 1 05 Sep 02:37:05 02:38:47 12° 302° (WNW) 02:40:19 437.445
SO-50 05 Sep 02:37:15 02:41:27 27° 326° (NW) 02:45:41 436.795
SWISSCUBE 05 Sep 02:41:55 02:46:23 38° 263° (W) 02:50:49 437.505
MOZHAYETS 4 05 Sep 02:59:10 03:00:45 12° 57° (ENE) 03:02:33
Cosmos 2499 05 Sep 03:09:44 03:16:37 29° 81° (E) 03:23:53 435.465 / 435.565
STARS 05 Sep 03:14:56 03:19:13 52° 71° (ENE) 03:23:35 437.465
ITUPSAT 1 05 Sep 03:24:21 03:27:44 18° 270° (W) 03:30:59 437.325
PCSat 05 Sep 03:25:08 03:29:48 28° 321° (NW) 03:34:28 145.827
GONETS M04 05 Sep 03:39:01 03:47:43 71° 283° (WNW) 03:56:29
VERMONT LUNAR 05 Sep 03:40:09 03:42:18 18° 173° (S) 03:44:27 437.305
ITAMSAT 1 05 Sep 03:41:24 03:46:34 63° 101° (E) 03:51:44 435.822/435.867
KKS-1 05 Sep 03:45:49 03:50:09 50° 260° (W) 03:54:33 437.445
Gurwin Techsat 1B 05 Sep 03:51:26 03:56:48 88° 292° (WNW) 04:02:08 435.225
AO-7 05 Sep 03:53:17 03:59:24 23° 88° (E) 04:05:47 29.400- 29.500
O/OREOS (USA 219) 05 Sep 04:03:32 04:08:10 74° 63° (ENE) 04:12:45 437.305
Oscar 19 05 Sep 04:12:03 04:16:12 24° 299° (WNW) 04:20:13 437.125/150
JAS-2 05 Sep 04:13:15 04:20:14 73° 102° (ESE) 04:26:20 435.910
PHONESAT 2.4 05 Sep 04:20:27 04:21:18 11° 157° (SSE) 04:22:14 2401.200-2431.200
SO-50 05 Sep 04:21:25 04:23:39 13° 350° (N) 04:25:51 436.795
MOZHAYETS 4 05 Sep 04:32:41 04:37:17 79° 75° (ENE) 04:41:54
HORYU 2 05 Sep 04:45:36 04:49:43 36° 97° (E) 04:53:49 437.375
STARS 05 Sep 04:52:46 04:56:00 19° 270° (W) 04:59:08 437.465
Cosmos 2499 05 Sep 05:00:21 05:09:02 77° 282° (WNW) 05:17:59 435.465 / 435.565
CUBESAT XI-V 05 Sep 05:04:31 05:07:42 19° 62° (ENE) 05:11:01 437.345
PCSat 05 Sep 05:13:13 05:15:09 12° 346° (NNW) 05:16:59 145.827
VERMONT LUNAR 05 Sep 05:16:06 05:18:06 17° 190° (S) 05:20:07 437.305
STRAND 1 05 Sep 05:17:31 05:17:34 10° 52° (NE) 05:17:52 437.568
ITAMSAT 1 05 Sep 05:21:43 05:25:41 22° 300° (WNW) 05:29:33 435.822/435.867
Gurwin Techsat 1B 05 Sep 05:32:51 05:36:07 16° 304° (NW) 05:39:13 435.225
GONETS M04 05 Sep 05:40:43 05:46:36 19° 309° (NW) 05:52:10
O/OREOS (USA 219) 05 Sep 05:44:28 05:47:03 15° 260° (W) 05:49:27 437.305
AO-7 05 Sep 05:45:02 05:53:23 88° 292° (WNW) 06:01:42 29.400- 29.500
PHONESAT 2.4 05 Sep 05:55:48 05:58:28 21° 173° (S) 06:01:08 2401.200-2431.200
JAS-2 05 Sep 05:59:00 06:04:39 26° 304° (NW) 06:09:40 435.910
Cubesat XI-IV 05 Sep 06:00:24 06:01:39 11° 83° (E) 06:03:14 437.490
SO-50 05 Sep 06:03:42 06:06:15 14° 14° (NNE) 06:08:51 436.795
MOZHAYETS 4 05 Sep 06:12:52 06:15:10 13° 274° (W) 06:17:15
HORYU 2 05 Sep 06:22:25 06:26:15 28° 295° (WNW) 06:30:00 437.375
PRISM 05 Sep 06:34:59 06:38:19 25° 65° (ENE) 06:41:43 437.425
CUBESAT XI-V 05 Sep 06:40:14 06:44:46 59° 260° (W) 06:49:20 437.345
CUTE-I 05 Sep 06:41:28 06:45:50 26° 92° (E) 06:50:17 437.470
STRAND 1 05 Sep 06:50:50 06:55:48 56° 70° (ENE) 07:00:48 437.568
Cosmos 2499 05 Sep 06:57:32 07:04:01 21° 307° (NW) 07:10:14 435.465 / 435.565
PCSat 05 Sep 06:59:26 07:01:07 11° 13° (NNE) 07:02:52 145.827
YUBILEINY 05 Sep 07:00:11 07:08:01 35° 64° (ENE) 07:15:57 435.215
ISS 05 Sep 07:16:29 07:18:30 16° 138° (SE) 07:20:35 145.825
AIST 1 05 Sep 07:16:56 07:20:10 22° 88° (E) 07:23:31
BRITE-PL 05 Sep 07:18:31 07:21:25 15° 84° (E) 07:24:38 437.365/2234.400
PHONESAT 2.4 05 Sep 07:33:09 07:35:45 20° 189° (S) 07:38:20 2401.200-2431.200
Cubesat XI-IV 05 Sep 07:37:28 07:42:49 74° 103° (ESE) 07:48:10 437.490
AO-7 05 Sep 07:38:43 07:45:17 26° 312° (NW) 07:51:40 29.400- 29.500
SO-50 05 Sep 07:43:45 07:48:16 34° 38° (NE) 07:52:45 436.795
Cosmos 2491 05 Sep 07:55:35 08:02:36 30° 82° (E) 08:09:50 435.465 / 435.565
PRISM 05 Sep 08:09:53 08:13:38 34° 263° (W) 08:17:22 437.425
CUTE-I 05 Sep 08:21:03 08:26:13 51° 291° (WNW) 08:31:22 437.470
STRAND 1 05 Sep 08:31:26 08:35:24 22° 269° (W) 08:39:16 437.568
PCSat 05 Sep 08:41:57 08:46:30 27° 37° (NE) 08:51:06 145.827
DOVE 4 05 Sep 08:47:47 08:52:28 31° 93° (E) 08:57:09 437.250
CUSAT 1 05 Sep 08:50:51 08:56:19 21° 54° (NE) 09:02:18 437.405
ISS 05 Sep 08:51:15 08:54:31 79° 153° (SSE) 08:57:47 145.825
AIST 1 05 Sep 08:53:39 08:57:38 37° 287° (WNW) 09:01:38
BRITE-PL 05 Sep 08:55:09 09:00:46 85° 101° (ESE) 09:06:30 437.365/2234.400
YUBILEINY 05 Sep 08:56:49 09:05:32 64° 267° (W) 09:14:08 435.215
CINEMA 3 05 Sep 08:57:16 09:00:26 17° 86° (E) 09:03:42 145.822/145.860
GOMX 1 05 Sep 08:58:28 09:03:55 59° 99° (E) 09:09:20 467.674
Cosmos 2504 05 Sep 09:08:26 09:15:40 31° 62° (ENE) 09:22:43 435.465 / 435.565
CUTE 1.7 + AOD 2 05 Sep 09:08:37 09:12:15 28° 94° (E) 09:15:55 437.475
Cubesat XI-IV 05 Sep 09:18:36 09:22:25 20° 302° (WNW) 09:26:07 437.490
TIGRISAT 05 Sep 09:19:15 09:21:57 16° 59° (ENE) 09:24:48 435.000
HO-68 05 Sep 09:20:14 09:27:05 45° 98° (E) 09:33:56 435.675
CANX-2 05 Sep 09:23:11 09:27:14 43° 98° (E) 09:31:16 2200.000
SO-50 05 Sep 09:24:13 09:29:02 51° 239° (WSW) 09:33:43 436.795
SEEDS 05 Sep 09:35:28 09:39:27 42° 98° (E) 09:43:26 437.485
ANTELSAT 05 Sep 09:37:27 09:41:04 23° 63° (ENE) 09:44:46 437.575/2403.000
AUBIESAT-1 05 Sep 09:44:45 09:48:35 26° 60° (ENE) 09:52:21 437.475
DELFI C3 05 Sep 09:44:50 09:45:11 10° 85° (E) 09:45:46 145.870
UWE-3 05 Sep 09:46:35 09:49:31 17° 88° (E) 09:52:32 435.000/436.395/437.385
COMPASS 1 05 Sep 09:48:45 09:52:47 46° 99° (E) 09:56:46 437.405
CUBEBUG 2 05 Sep 09:49:55 09:53:38 24° 91° (E) 09:57:19 437.445
Cosmos 2491 05 Sep 09:50:08 09:58:50 71° 283° (WNW) 10:07:34 435.465 / 435.565
AAUSAT CUBESAT 2 05 Sep 09:54:24 09:58:22 44° 98° (E) 10:02:20 437.432
M-CUBED/EXP-1 PRIME 05 Sep 09:54:36 09:58:55 36° 63° (ENE) 10:03:08 437.505
DANDE 05 Sep 09:55:13 10:02:08 35° 65° (ENE) 10:09:50 436.750
Oscar 11 05 Sep 10:09:06 10:12:55 30° 95° (E) 10:16:44 145.826/435.025
BUGSAT 1 05 Sep 10:20:12 10:22:03 13° 59° (ENE) 10:24:05 437.445
PCSat 05 Sep 10:25:02 10:30:29 72° 238° (WSW) 10:35:52 145.827
DOVE 4 05 Sep 10:25:18 10:30:19 43° 292° (WNW) 10:35:15 437.250
UNISAT 6 05 Sep 10:27:04 10:31:43 61° 72° (ENE) 10:36:23 437.425
ISS 05 Sep 10:27:57 10:31:06 44° 354° (N) 10:34:15 145.825
CUSAT 1 05 Sep 10:32:20 10:40:17 73° 75° (ENE) 10:48:30 437.405
CINEMA 3 05 Sep 10:33:13 10:38:13 69° 287° (WNW) 10:43:01 145.822/145.860
DUCHIFAT 1 05 Sep 10:33:31 10:37:02 26° 66° (ENE) 10:40:37 145.980
BRITE-PL 05 Sep 10:34:48 10:38:41 19° 301° (WNW) 10:42:28 437.365/2234.400
POLYITAN 1 05 Sep 10:37:05 10:40:48 30° 67° (ENE) 10:44:36 437.675
GOMX 1 05 Sep 10:37:13 10:41:40 25° 297° (WNW) 10:46:02 467.674
POPSAT HIP 1 05 Sep 10:37:36 10:41:17 29° 67° (ENE) 10:45:03 437.405
CUTE 1.7 + AOD 2 05 Sep 10:44:25 10:48:11 31° 292° (WNW) 10:51:53 437.475
NANOSAT C BR1 05 Sep 10:52:26 10:56:25 40° 69° (ENE) 11:00:26 145.865
TIGRISAT 05 Sep 10:53:25 10:58:08 81° 258° (WSW) 11:02:52 435.000
QB50P2 05 Sep 10:55:30 10:59:34 45° 70° (ENE) 11:03:42 145.880/145.840
YUBILEINY 05 Sep 10:56:25 11:00:42 14° 288° (WNW) 11:04:26 435.215
CANX-2 05 Sep 10:59:40 11:02:56 21° 295° (WNW) 11:06:05 2200.000
Cosmos 2504 05 Sep 11:00:19 11:08:45 70° 266° (W) 11:16:37 435.465 / 435.565
ZACube-1 05 Sep 11:03:18 11:07:49 72° 103° (ESE) 11:12:09 437.345
HUMSAT D 05 Sep 11:05:41 11:09:27 31° 95° (E) 11:13:11 437.325/437.525
FUNcube-1 05 Sep 11:06:16 11:10:45 75° 102° (ESE) 11:15:06 145.935
HO-68 05 Sep 11:08:06 11:14:52 44° 298° (WNW) 11:21:33 435.675
QB50P1 05 Sep 11:08:06 11:12:17 58° 73° (ENE) 11:16:32 145.935-145.965
SEEDS 05 Sep 11:11:46 11:15:01 22° 295° (WNW) 11:18:10 437.485
ANTELSAT 05 Sep 11:12:56 11:17:33 51° 261° (W) 11:22:10 437.575/2403.000
DELFI C3 05 Sep 11:16:52 11:20:53 80° 286° (WNW) 11:24:51 145.870
AUBIESAT-1 05 Sep 11:18:33 11:23:05 46° 256° (WSW) 11:27:27 437.475
50 SAT 05 Sep 11:19:28 11:22:04 18° 91° (E) 11:24:45 437.505
VELOX 1 05 Sep 11:20:08 11:23:01 17° 89° (E) 11:26:02 145.980
UWE-3 05 Sep 11:21:59 11:26:31 59° 287° (WNW) 11:30:53 435.000/436.395/437.385
COMPASS 1 05 Sep 11:25:04 11:28:10 20° 296° (WNW) 11:31:08 437.405
CUBEBUG 2 05 Sep 11:26:05 11:30:33 44° 290° (WNW) 11:34:50 437.445
M-CUBED/EXP-1 PRIME 05 Sep 11:29:22 11:33:41 33° 259° (W) 11:37:50 437.505
AAUSAT CUBESAT 2 05 Sep 11:30:36 11:33:42 20° 296° (WNW) 11:36:42 437.432
DANDE 05 Sep 11:38:00 11:45:45 67° 263° (W) 11:54:12 436.750
Oscar 11 05 Sep 11:45:16 11:49:05 31° 293° (WNW) 11:52:51 145.826/435.025
DX 1 05 Sep 11:45:40 11:49:52 43° 99° (E) 11:54:04 434.975-435.025
GONETS M04 05 Sep 11:48:57 11:54:40 19° 51° (NE) 12:00:45
UKube-1 05 Sep 11:49:58 11:54:08 43° 99° (E) 11:58:18 .
Cosmos 2491 05 Sep 11:51:54 11:57:45 18° 309° (NW) 12:03:15 435.465 / 435.565
BUGSAT 1 05 Sep 11:52:50 11:56:57 79° 256° (WSW) 12:01:09 437.445
ISS 05 Sep 12:04:36 12:07:50 57° 14° (NNE) 12:11:03 145.825
UNISAT 6 05 Sep 12:05:37 12:08:55 18° 271° (W) 12:12:05 437.425
DUCHIFAT 1 05 Sep 12:08:46 12:12:42 36° 264° (W) 12:16:39 145.980
PCSat 05 Sep 12:11:02 12:13:03 12° 257° (WSW) 12:14:46 145.827
CINEMA 3 05 Sep 12:12:39 12:14:31 12° 305° (NW) 12:16:09 145.822/145.860
POLYITAN 1 05 Sep 12:12:48 12:16:40 31° 265° (W) 12:20:31 437.675
CUBEBUG 1 05 Sep 12:13:13 12:17:19 36° 96° (E) 12:21:26 437.445
POPSAT HIP 1 05 Sep 12:13:15 12:17:06 31° 265° (W) 12:20:57 437.405
Oscar 19 05 Sep 12:15:09 12:18:45 20° 59° (ENE) 12:22:31 437.125/150
CUSAT 1 05 Sep 12:15:34 12:22:23 31° 273° (W) 12:29:09 437.405
AISAT 05 Sep 12:28:49 12:33:20 81° 104° (ESE) 12:37:50 437.250
NANOSAT C BR1 05 Sep 12:28:58 12:32:24 23° 268° (W) 12:35:47 145.865
QB50P2 05 Sep 12:32:26 12:35:42 20° 269° (W) 12:38:54 145.880/145.840
TISAT 1 05 Sep 12:33:27 12:34:43 11° 86° (E) 12:36:13 437.305
TIGRISAT 05 Sep 12:34:41 12:35:44 10° 277° (W) 12:36:29 435.000
ESTCUBE 1 05 Sep 12:34:58 12:39:30 71° 103° (ESE) 12:44:00 437.505/2401.250
ZACube-1 05 Sep 12:40:54 12:43:37 16° 300° (WNW) 12:46:11 437.345
HUMSAT D 05 Sep 12:41:27 12:45:08 29° 293° (WNW) 12:48:43 437.325/437.525
FUNcube-1 05 Sep 12:43:54 12:46:31 15° 301° (WNW) 12:48:58 145.935
QB50P1 05 Sep 12:45:52 12:48:35 16° 271° (W) 12:51:10 145.935-145.965
JAS-2 05 Sep 12:46:51 12:50:43 15° 47° (NE) 12:54:49 435.910
50 SAT 05 Sep 12:53:09 12:56:49 42° 290° (WNW) 13:00:26 437.505
Cosmos 2504 05 Sep 12:54:46 12:59:28 16° 287° (WNW) 13:03:34 435.465 / 435.565
VELOX 1 05 Sep 12:55:34 12:59:59 58° 288° (WNW) 13:04:23 145.980
Cosmos 2499 05 Sep 12:56:36 13:00:31 14° 44° (NE) 13:04:45 435.465 / 435.565
HO-68 05 Sep 12:58:20 13:00:56 12° 320° (NW) 13:03:14 435.675
AO-7 05 Sep 13:08:46 13:12:39 15° 36° (NE) 13:16:50 29.400- 29.500
DX 1 05 Sep 13:22:22 13:25:54 23° 296° (WNW) 13:29:19 434.975-435.025
DANDE 05 Sep 13:23:11 13:27:56 16° 280° (W) 13:32:26 436.750
SPROUT 05 Sep 13:23:56 13:28:16 63° 102° (ESE) 13:32:34 437.525
ITAMSAT 1 05 Sep 13:25:16 13:29:09 22° 60° (ENE) 13:33:09 435.822/435.867
UKube-1 05 Sep 13:26:34 13:30:02 23° 296° (WNW) 13:33:25 .
